GFSSGP_250_rhum_060.txt.gz
RH
8 7 7 7 7 7 6 7 7 8 10 11 11 11 15 10 15 13 14 12 12 12 12 11 12 14 15 19 22 22 24 23 27 28 28 36 46 45 49 41 52 53 64 74 59 69 69 64 61
9 9 8 7 8 8 7 7 8 9 11 19 22 23 18 11 14 52 38 17 14 12 12 13 13 14 15 18 23 22 29 34 31 36 45 39 54 94 100 56 71 54 77 74 69 66 70 68 65
11 10 10 9 8 9 9 8 9 10 41 40 29 42 31 87 56 29 45 49 31 25 20 15 15 15 17 18 21 31 42 31 35 38 44 57 79 93 73 55 61 78 94 76 80 77 71 68 54
12 12 12 11 10 10 11 10 9 9 11 35 38 26 27 64 86 64 58 48 56 43 40 22 24 47 60 50 56 92 57 62 68 77 96 100 82 99 69 71 81 82 90 86 94 92 100 94 80
12 14 14 15 13 13 13 12 12 11 11 11 12 24 31 54 47 69 62 63 47 33 38 56 80 59 57 74 83 93 65 80 99 93 100 91 90 95 100 100 99 100 100 94 100 94 83 67 61
13 15 17 20 18 15 14 14 14 24 14 11 12 16 26 37 35 45 58 40 25 27 35 58 97 86 94 73 66 89 88 100 100 100 100 100 100 100 100 100 95 96 93 100 100 98 90 73 91
14 17 21 26 17 18 17 16 17 24 54 29 13 13 15 17 25 50 49 41 32 64 100 100 100 100 92 67 75 100 100 100 100 100 98 100 98 100 98 90 80 82 82 78 95 100 81 80 68
16 23 30 29 20 22 24 21 20 20 69 32 30 19 40 50 87 72 42 33 33 84 98 100 100 100 100 100 100 100 100 100 100 100 100 96 100 100 100 100 100 100 85 100 92 80 100 85 95
27 37 41 27 28 28 30 27 23 19 22 27 31 73 79 100 96 34 26 23 57 65 100 74 100 100 100 100 100 100 100 100 100 100 100 100 99 100 100 100 100 96 85 91 82 62 73 98 100
36 45 65 36 31 35 32 29 25 23 27 44 77 100 85 47 37 40 35 24 20 71 52 81 100 100 100 100 100 100 100 100 100 100 100 100 100 100 100 99 97 88 99 95 93 86 97 85 65
38 60 80 61 36 48 48 46 43 32 75 90 68 64 36 61 80 78 67 44 31 73 100 100 100 100 100 100 100 100 100 100 100 100 100 100 97 86 98 100 79 97 98 100 100 100 86 96 78
44 61 82 82 52 69 67 73 87 48 47 100 100 83 95 89 97 76 44 42 54 69 100 89 100 100 100 100 100 100 100 100 100 100 100 99 100 99 99 96 100 100 100 98 87 77 70 78 84
57 68 84 99 82 60 69 75 83 75 63 100 100 98 98 84 84 92 96 98 89 86 100 100 100 100 100 100 100 100 100 100 100 100 100 93 100 100 100 92 98 100 95 97 89 87 100 89 67
68 78 98 94 89 84 57 56 61 62 67 89 100 100 100 100 100 99 100 100 100 98 89 100 100 100 100 100 100 100 100 100 100 99 100 100 100 100 100 100 100 100 95 98 96 93 84 74 62
84 93 71 79 82 68 61 74 62 48 41 52 97 100 100 100 100 100 100 100 100 100 100 100 100 100 100 100 100 100 100 100 100 100 100 100 100 100 100 99 100 100 100 88 80 87 88 89 96
93 84 88 84 77 62 75 100 81 66 63 65 85 100 100 100 100 100 98 100 98 100 99 96 100 100 100 100 100 100 100 100 100 98 100 94 100 95 96 100 92 98 84 78 71 92 95 87 77
100 100 99 98 75 73 90 91 98 100 100 100 100 100 100 100 100 100 100 94 81 69 82 85 96 90 75 65 79 90 91 93 100 100 100 93 100 100 82 82 89 77 86 79 97 94 80 51 35
87 98 97 89 84 92 93 100 100 100 100 100 100 100 100 100 100 99 91 82 69 60 72 76 79 98 90 80 86 80 77 100 100 97 100 100 100 100 90 91 93 96 88 92 78 54 38 32 32
76 64 78 81 94 89 96 100 100 100 100 100 100 100 100 100 100 98 100 100 94 98 100 100 100 100 100 100 84 75 89 100 100 100 100 100 100 86 94 81 84 79 64 44 37 34 32 32 31
69 69 75 79 94 95 100 100 100 100 100 85 100 98 100 100 100 100 100 100 100 100 100 100 100 90 95 77 94 100 100 100 100 100 100 90 90 87 79 71 60 46 37 34 33 33 33 32 31
81 99 99 100 96 92 96 100 100 100 100 100 100 93 97 100 100 100 100 100 100 100 100 100 98 91 87 100 100 100 100 100 100 100 99 86 74 65 56 47 36 36 36 36 38 39 39 38 37
83 95 78 78 92 100 99 100 100 100 100 100 100 100 100 100 100 100 100 100 100 100 96 100 99 97 97 96 93 92 90 77 74 73 64 58 58 53 36 34 38 42 41 40 37 38 43 46 49
91 90 74 72 74 94 100 98 100 100 100 100 99 99 100 95 60 58 56 62 70 100 100 99 92 78 76 74 71 66 59 52 54 57 57 60 39 37 34 44 47 42 39 37 38 40 39 40 38
88 98 94 73 73 70 72 68 74 90 87 100 100 100 100 88 79 68 71 67 74 86 72 70 67 68 65 69 65 70 84 78 57 58 53 52 46 45 53 52 45 41 39 44 42 45 51 61 58
79 72 87 83 86 82 74 67 86 100 100 100 100 100 100 96 93 86 72 68 67 68 63 57 63 67 72 70 90 100 100 100 86 72 71 76 57 62 61 46 42 40 40 46 53 59 59 59 50
78 69 87 90 88 90 100 96 82 90 76 94 96 99 95 92 94 88 72 77 64 66 55 69 76 74 66 86 100 100 100 100 75 80 94 58 67 54 44 39 35 36 51 55 59 64 60 55 48
81 96 69 84 96 97 100 100 100 91 96 100 100 90 84 82 73 68 58 61 63 70 67 72 64 86 100 100 100 100 100 96 98 64 52 51 49 49 40 34 44 53 54 57 60 61 57 54 56
43 81 93 74 89 97 100 100 100 98 100 100 100 96 78 68 69 71 72 72 69 60 52 51 40 92 100 100 100 96 76 53 53 57 56 54 48 41 35 47 58 61 63 70 68 62 59 65 66
43 37 75 100 100 83 86 96 82 81 71 76 93 97 93 91 89 72 46 44 43 40 37 30 34 80 82 73 61 54 54 55 56 57 56 42 39 44 45 54 56 55 55 58 59 66 74 73 74
46 41 32 64 95 78 57 64 63 61 61 67 75 84 71 59 57 47 43 43 39 31 28 29 38 67 73 56 56 60 58 55 60 49 44 52 58 55 64 60 54 54 59 68 75 77 77 72 80

GFSSGP_250_rhum_066.txt.gz
RH
19 13 13 10 8 8 7 7 7 7 7 8 9 7 8 8 9 24 45 22 17 17 16 16 17 17 16 16 16 17 17 18 19 21 24 27 30 29 29 30 32 28 28 28 26 28 27 25 24
23 15 13 9 8 8 8 8 8 8 9 11 12 11 11 42 62 32 37 32 24 19 18 18 17 17 17 16 16 17 18 18 22 23 26 26 31 33 34 34 35 34 34 32 26 24 30 29 31
21 20 11 10 9 10 10 10 9 9 11 12 11 27 29 65 93 68 28 24 17 30 23 19 18 18 17 17 16 16 16 17 20 23 24 27 28 30 30 31 35 33 36 37 32 41 38 42 47
25 14 11 11 12 11 11 10 10 11 13 13 12 41 57 100 99 95 72 26 15 34 29 22 20 21 26 21 19 18 15 16 18 20 22 28 27 28 31 34 37 43 46 51 37 45 63 76 99
25 12 12 13 14 13 12 11 12 14 13 16 14 38 97 100 99 88 92 59 48 65 69 32 43 67 60 61 37 30 20 18 26 38 46 45 30 30 31 49 89 74 87 94 90 88 98 98 96
16 12 13 15 16 14 14 14 16 16 16 18 16 17 58 92 88 89 70 49 100 100 99 100 80 100 100 90 90 66 53 48 50 53 58 52 42 59 66 91 94 100 99 100 89 98 89 86 82
15 13 16 20 18 17 19 22 22 19 19 20 18 19 31 100 100 100 70 75 100 100 100 100 100 100 100 98 87 87 68 61 60 79 75 77 96 100 100 100 100 100 100 100 99 89 78 82 95
15 15 19 26 21 23 28 33 34 49 28 28 24 23 22 77 72 100 68 43 100 100 100 100 100 100 98 100 100 98 87 72 86 100 100 100 100 100 100 100 100 100 100 100 92 81 69 66 79
14 19 26 28 27 36 38 36 33 52 71 100 78 52 52 58 70 87 100 76 78 100 100 100 100 100 100 100 100 100 100 100 100 100 100 100 100 100 100 100 100 100 100 100 100 100 100 82 87
16 24 30 30 38 45 47 62 42 41 76 94 100 83 100 100 100 100 100 97 100 100 100 100 100 98 100 100 100 76 99 100 99 100 100 100 100 100 100 100 96 99 100 100 100 100 98 91 79
22 32 33 38 44 47 54 63 45 40 38 97 100 90 100 100 100 100 80 70 63 69 96 100 100 100 100 100 72 94 100 100 100 100 100 100 100 100 100 100 100 100 100 100 100 92 99 100 65
30 36 37 45 52 47 77 100 72 52 36 48 98 91 91 100 100 82 66 91 67 39 41 47 58 72 99 84 98 100 100 100 100 100 100 73 100 100 100 100 100 100 100 100 98 98 94 94 100
35 42 54 58 57 54 50 68 90 58 37 38 84 98 86 73 78 70 70 83 70 58 61 54 100 100 100 100 100 100 100 100 100 100 100 78 98 100 100 100 100 100 100 100 100 99 100 100 87
39 55 63 62 79 67 46 61 86 69 54 33 35 84 92 82 83 88 72 56 67 100 86 100 100 100 100 100 100 100 100 100 100 100 100 95 94 100 100 100 96 98 100 100 100 100 96 89 88
46 58 68 63 94 86 68 72 86 80 52 36 45 35 49 44 92 79 100 78 94 93 66 100 100 100 100 100 100 100 100 98 100 94 99 92 89 97 100 100 100 100 89 76 83 66 90 87 100
45 66 79 69 90 100 84 80 67 64 62 43 79 56 56 100 100 100 100 100 96 100 100 100 100 100 100 92 100 100 100 100 100 100 100 100 100 100 100 100 100 98 94 80 77 97 100 100 98
51 43 87 81 91 100 100 99 74 67 66 58 83 100 99 100 100 100 100 100 100 100 100 100 100 100 100 100 100 99 100 100 100 100 100 98 100 90 87 91 100 91 99 91 100 84 82 94 91
51 41 62 76 87 98 92 94 98 88 68 65 100 100 100 99 100 100 99 100 100 100 97 100 100 100 100 100 100 97 99 100 100 95 99 100 100 100 100 86 78 75 79 100 100 100 100 100 98
52 49 45 69 78 98 100 100 100 100 100 78 100 100 100 100 100 100 100 100 80 79 94 93 99 100 100 100 100 100 100 100 100 100 100 100 97 92 100 87 91 100 100 100 100 95 97 86 73
54 45 68 70 83 83 97 100 98 100 91 96 100 100 100 100 98 100 99 100 100 100 100 76 88 71 68 85 85 84 90 97 95 93 84 88 100 83 97 97 98 99 98 87 81 71 57 53 54
47 55 66 83 76 83 86 94 82 78 96 100 100 100 100 100 100 100 100 100 88 78 99 100 80 67 90 92 100 100 91 74 65 60 66 81 70 74 81 81 73 77 61 61 57 54 55 51 50
32 59 61 84 93 77 70 69 77 81 71 95 100 83 100 100 100 96 89 100 91 100 100 93 71 74 95 100 100 100 100 96 98 100 96 90 78 66 60 68 67 65 64 59 59 60 67 61 46
32 55 67 76 100 100 95 83 61 59 61 72 74 99 96 90 100 100 98 99 100 100 100 100 100 100 91 100 99 95 76 62 74 77 79 77 60 67 69 69 75 67 67 67 89 86 65 52 51
39 35 60 60 78 100 100 100 100 100 86 69 97 100 100 97 95 88 99 100 100 99 94 94 83 69 70 64 58 53 62 84 89 88 81 68 63 57 60 71 84 84 86 95 97 70 58 58 59
42 37 36 62 71 75 90 70 81 94 100 100 84 77 99 97 100 100 100 94 86 80 70 70 69 66 62 72 76 76 99 100 100 94 87 80 84 68 76 97 100 100 100 96 72 58 65 65 65
43 42 35 40 73 75 74 63 87 96 85 82 91 100 79 67 69 81 87 87 81 75 76 78 87 90 97 93 89 91 92 91 78 60 72 81 92 96 100 100 100 100 100 78 60 69 66 64 49
42 41 40 35 36 85 83 87 68 69 92 83 96 80 71 66 58 56 60 63 73 73 80 87 79 76 79 93 91 90 90 92 99 100 100 100 100 100 100 100 100 95 67 74 72 71 66 63 52
48 50 45 41 36 39 69 82 87 70 54 70 72 80 90 88 78 78 69 60 57 59 62 66 71 76 82 82 81 86 85 78 83 99 100 91 100 100 100 100 86 68 72 60 59 57 52 49 58
59 54 53 49 46 40 38 54 70 86 77 74 86 84 80 80 84 77 64 61 59 60 60 62 73 77 60 58 60 56 52 62 85 99 100 100 100 100 72 66 68 77 74 94 98 68 52 63 76
82 62 60 55 52 55 43 58 37 44 80 82 100 96 78 73 73 67 65 78 86 89 88 72 55 56 47 40 38 34 35 42 82 100 100 100 100 97 93 100 97 82 82 87 75 70 62 58 63

GFSSGP_250_rhum_072.txt.gz
RH
45 38 32 28 22 19 17 15 12 9 8 7 6 6 8 10 5 96 100 100 100 100 100 100 98 97 46 13 18 20 21 21 23 23 24 25 25 23 25 27 25 24 24 23 24 25 26 23 22
38 34 31 25 20 17 16 13 9 7 8 10 8 8 47 23 45 100 100 100 100 98 100 100 100 100 98 29 21 21 21 20 22 24 25 28 28 28 27 26 27 24 26 25 25 26 23 24 24
34 30 28 24 17 17 14 9 8 8 17 18 22 11 13 44 100 100 100 100 100 99 100 88 90 67 67 71 15 23 23 24 24 24 27 27 27 27 27 26 28 26 27 26 23 23 22 24 24
30 30 29 24 17 13 10 8 8 16 39 41 93 30 79 76 100 100 100 100 100 95 100 100 69 62 46 25 15 16 25 28 29 29 26 24 25 24 24 24 25 25 26 24 23 20 20 21 22
30 32 27 22 14 10 8 8 16 25 83 94 100 97 84 61 100 100 97 93 99 99 84 100 92 100 98 71 66 42 28 23 24 26 32 30 26 24 24 24 24 23 21 20 21 21 20 21 20
36 34 35 20 14 10 10 11 19 16 90 92 100 100 84 58 73 100 69 64 82 100 100 90 94 95 100 100 100 100 79 43 38 32 37 42 50 47 39 34 26 24 26 22 24 22 23 26 32
50 34 29 16 11 10 13 14 20 17 61 100 100 86 97 97 84 78 89 76 100 100 97 100 100 96 99 93 83 86 94 86 44 44 42 39 49 44 48 44 45 45 45 48 40 46 51 56 70
38 42 27 15 12 18 18 23 63 23 100 53 92 99 100 100 100 83 85 60 100 96 100 100 99 100 100 100 100 100 100 100 100 99 93 92 99 82 62 94 96 100 97 83 98 88 96 96 100
45 42 19 14 18 20 17 51 67 53 100 100 85 98 100 99 100 83 48 83 94 100 81 100 100 100 100 100 100 100 100 100 100 100 100 100 100 100 100 100 96 100 100 99 100 100 100 96 83
48 34 17 15 21 23 23 66 81 66 69 52 90 100 87 100 100 89 56 94 100 100 98 96 100 100 99 100 100 100 100 100 100 96 99 95 100 100 100 100 100 100 100 96 92 100 99 98 100
52 32 18 18 28 25 30 42 100 92 90 100 100 99 100 100 92 68 55 95 100 100 100 100 100 100 100 100 100 100 100 100 100 100 100 100 100 98 100 100 100 100 100 100 88 98 100 100 100
52 30 21 22 29 26 28 65 48 37 100 99 96 91 73 100 92 83 55 100 100 100 100 95 100 100 100 100 100 100 100 100 100 100 100 100 100 99 100 100 100 100 100 82 72 70 98 100 100
52 30 21 32 42 41 45 85 88 30 72 82 74 85 33 80 98 54 53 93 100 100 100 100 100 100 100 81 100 100 100 100 100 100 100 100 100 100 100 100 100 82 99 93 89 100 100 100 100
50 32 21 40 45 50 41 58 80 76 64 29 72 65 45 31 30 38 47 67 100 100 100 100 100 99 100 100 100 100 100 100 100 100 100 100 100 100 100 100 100 98 100 100 100 75 77 62 53
48 30 22 37 49 56 49 87 100 97 100 88 34 24 16 20 20 30 56 80 100 100 100 100 100 100 100 100 100 100 100 100 100 100 100 100 100 100 100 100 100 100 100 100 93 74 99 100 84
47 32 21 40 42 61 61 84 96 100 100 100 77 33 30 29 20 22 41 82 100 100 100 100 100 100 96 100 100 100 100 93 100 100 100 100 100 100 100 100 100 100 100 100 100 90 85 89 66
44 40 21 36 38 41 56 98 99 98 99 87 34 36 35 41 42 32 34 52 81 100 100 100 100 100 100 100 100 100 100 100 100 100 100 98 99 100 100 100 100 100 100 96 87 86 76 100 99
47 39 23 29 45 40 64 51 83 80 79 50 38 57 34 35 49 50 42 35 46 69 88 100 100 100 98 100 100 100 100 100 100 100 97 90 100 100 100 100 100 100 100 99 100 100 100 100 100
49 45 29 26 53 45 68 100 76 60 100 98 100 77 52 31 67 65 74 82 74 71 79 79 91 100 99 99 100 100 98 98 100 100 100 100 100 100 100 97 94 100 100 100 100 100 100 97 100
49 50 32 23 56 48 60 73 64 78 100 84 94 100 100 86 75 97 86 72 58 58 58 61 100 100 98 80 64 100 100 100 100 100 100 100 100 99 100 100 100 100 100 99 98 89 75 80 82
50 55 36 25 44 56 53 70 63 76 86 100 100 100 100 99 74 55 91 100 94 74 76 100 91 96 95 97 79 94 100 100 100 100 100 100 100 100 100 100 100 90 83 74 69 84 80 74 62
51 55 42 29 28 51 52 51 64 77 89 97 100 100 100 100 100 94 100 89 70 91 94 57 63 78 92 90 97 71 96 94 93 93 86 96 100 100 85 84 93 97 99 100 77 69 61 56 59
63 57 46 37 28 30 61 59 48 55 69 65 99 100 100 100 100 100 100 100 100 100 100 100 100 93 94 97 81 67 62 52 42 50 88 80 97 79 85 98 98 92 80 70 52 54 69 79 73
83 68 52 40 32 30 35 60 72 60 48 65 84 100 100 100 100 100 100 100 100 96 100 98 83 55 85 91 100 99 100 100 100 100 93 92 88 90 84 83 73 62 53 49 55 58 66 67 64
100 70 63 46 35 38 34 36 69 74 83 66 65 63 98 100 100 100 100 100 100 100 100 100 100 100 100 100 100 100 100 94 82 77 74 70 76 72 67 66 54 64 61 73 68 77 79 68 68
100 69 72 53 42 37 42 40 38 41 58 68 72 67 56 90 76 95 98 93 89 88 100 100 100 87 82 99 96 86 77 69 65 61 58 50 61 68 66 62 60 61 67 74 80 84 100 99 86
100 97 74 63 46 39 35 43 41 35 51 79 66 92 78 62 54 76 94 92 77 72 69 59 62 65 62 62 56 53 53 52 51 49 58 85 83 74 61 66 74 73 66 70 82 100 100 100 95
100 100 80 70 58 40 32 33 38 48 40 35 44 62 68 57 55 57 61 63 76 85 82 62 51 51 52 55 54 54 54 51 52 56 70 95 85 61 77 71 64 72 77 84 98 100 100 100 100
100 100 98 77 58 54 40 31 45 45 43 45 38 34 33 54 68 54 57 67 69 68 71 90 71 65 62 60 62 59 52 56 70 83 84 76 78 68 46 48 52 56 71 85 90 97 99 100 100
100 100 100 100 70 68 60 38 47 54 48 40 48 40 32 33 38 64 67 75 82 70 60 65 91 79 78 67 64 63 62 70 90 83 78 66 62 53 46 38 35 34 49 85 100 100 100 100 100

GFSSGP_250_rhum_075.txt.gz
RH
52 42 38 37 33 27 21 18 17 16 13 11 8 7 6 6 5 5 6 10 98 92 100 96 100 98 100 96 97 44 15 15 43 43 25 23 28 29 30 31 30 25 21 25 24 24 20 21 20
43 36 34 34 30 22 19 17 16 13 9 8 7 7 8 11 12 9 12 95 88 94 92 80 97 100 100 96 79 100 100 86 20 17 20 24 25 25 32 33 39 35 31 29 28 27 30 23 20
36 31 31 26 24 20 17 15 14 9 8 9 8 8 22 36 28 47 90 100 100 98 100 100 100 96 96 77 87 100 99 94 70 23 17 21 23 26 29 31 33 35 35 32 32 28 28 25 24
36 33 32 26 20 20 16 12 9 9 12 23 30 22 27 48 100 100 100 100 100 100 76 71 66 100 100 100 100 100 50 54 68 37 20 21 23 25 27 28 29 33 33 31 29 28 27 26 25
34 37 32 22 22 21 13 9 9 15 27 41 50 16 42 100 99 100 95 100 100 88 94 99 98 100 98 84 59 82 97 75 22 19 20 24 25 27 26 27 27 26 26 26 26 25 24 22 23
36 33 28 22 19 16 10 10 11 19 79 35 50 28 100 100 100 100 100 74 82 93 77 100 100 99 95 80 100 65 52 93 98 76 42 26 24 26 26 32 32 32 29 29 25 26 30 27 27
69 36 27 22 18 13 12 13 14 19 59 56 44 92 100 100 100 100 100 99 86 100 100 100 100 100 86 70 100 98 72 59 93 100 77 63 44 33 31 34 38 44 47 42 36 46 34 39 42
63 35 31 20 17 12 16 14 15 22 100 73 55 100 84 100 100 99 96 100 85 100 100 95 100 100 99 100 100 100 100 91 68 100 100 100 92 75 53 48 63 62 57 46 41 52 61 59 64
32 38 33 25 14 11 21 16 26 24 100 100 95 100 80 100 100 100 100 100 100 95 100 100 82 99 100 100 100 100 100 94 100 100 100 100 100 100 100 100 100 98 100 89 86 78 76 77 94
40 35 37 26 14 14 29 16 44 26 96 100 100 100 76 94 100 100 100 100 100 72 100 100 100 100 100 100 100 98 100 100 98 90 100 100 100 100 100 100 100 100 100 100 100 100 95 87 96
40 56 41 22 16 18 25 18 32 99 100 100 100 99 88 72 100 94 100 100 100 72 100 80 98 100 100 100 100 100 100 100 100 76 75 70 78 100 100 100 100 100 93 100 100 100 100 87 92
74 56 42 24 17 25 21 23 42 95 100 100 100 87 85 59 91 68 78 100 100 100 100 100 100 100 100 100 100 100 100 100 100 95 73 94 86 94 100 100 100 99 95 81 90 100 99 94 77
100 44 50 29 19 26 22 42 28 71 78 90 100 87 93 88 83 56 57 84 100 100 100 100 94 79 100 100 100 100 100 100 95 100 100 72 99 91 100 100 100 89 88 79 78 69 66 80 71
61 82 49 26 21 31 36 42 27 46 96 100 100 98 80 63 100 95 66 67 100 100 100 100 83 77 77 100 100 100 100 100 100 100 100 97 100 100 100 100 100 100 100 88 73 96 98 90 79
81 100 45 25 21 31 39 62 68 93 96 88 96 88 52 53 73 100 78 70 100 100 100 100 100 100 99 83 91 100 100 100 98 100 100 98 76 90 100 91 100 100 100 88 74 75 91 93 100
99 100 43 28 21 35 25 56 85 78 73 100 100 89 90 31 38 82 90 73 90 100 100 100 100 100 100 99 100 100 100 100 97 87 100 100 100 100 100 100 100 100 100 100 100 100 100 100 100
98 100 72 32 20 35 26 41 64 77 100 99 100 97 98 26 29 47 100 74 94 100 100 100 100 100 100 94 100 100 100 100 98 89 100 100 97 100 100 100 100 100 100 100 99 100 100 100 100
100 100 81 33 25 26 40 54 90 48 85 100 100 100 46 24 22 28 55 83 65 86 100 100 100 100 100 95 98 95 97 100 100 100 100 95 100 100 96 100 97 99 94 87 86 70 91 97 100
84 100 95 39 28 22 42 41 82 98 66 98 78 37 32 30 27 30 26 24 38 52 85 100 100 100 99 100 83 77 90 100 100 100 100 100 100 100 100 100 100 81 65 94 100 100 100 100 100
96 100 100 52 33 24 35 44 32 42 62 88 60 56 85 28 28 36 35 25 29 52 100 100 100 100 100 100 100 98 96 97 100 100 100 100 100 98 86 73 64 75 94 79 76 92 94 100 100
68 100 100 67 38 28 24 46 48 51 37 35 47 91 97 100 50 60 55 42 49 71 88 91 90 98 100 98 88 92 94 91 100 96 96 100 100 100 100 100 100 100 100 100 100 100 100 95 91
76 100 100 80 47 31 25 36 53 59 60 48 60 75 54 95 100 96 58 52 59 65 69 69 74 84 94 100 86 74 78 77 75 87 79 100 100 100 100 100 100 100 100 100 100 98 94 99 100
92 100 100 95 48 39 29 26 40 48 58 62 66 75 76 42 80 83 82 76 58 44 42 43 53 72 78 85 69 59 63 68 83 82 82 71 80 82 77 74 100 100 100 100 100 97 99 84 70
77 100 100 92 51 48 29 28 24 34 56 64 71 99 86 100 84 62 80 92 100 100 94 48 42 54 70 63 45 46 51 83 75 73 67 64 75 90 99 98 85 78 79 74 65 67 62 48 51
68 100 100 100 55 50 31 31 28 27 32 52 51 72 96 95 100 96 56 86 98 87 100 100 98 96 79 70 74 60 62 58 49 78 100 88 86 91 77 67 63 53 47 43 46 55 57 61 70
57 80 100 100 79 51 37 30 35 35 28 26 41 58 93 66 100 100 96 100 100 61 44 55 90 99 100 94 98 100 86 80 86 94 77 55 52 50 52 49 60 59 52 62 65 61 56 61 62
60 81 81 100 100 57 46 32 45 35 34 35 34 29 34 54 54 52 84 96 78 90 100 100 100 100 98 90 85 83 84 65 59 46 48 42 47 58 70 77 79 87 70 64 69 73 66 66 79
64 98 91 100 100 73 59 42 38 52 42 32 36 42 37 36 35 39 48 56 84 78 78 83 76 64 56 57 52 50 43 49 54 49 48 47 68 99 100 100 100 95 75 71 70 68 58 58 61
100 97 76 100 100 99 80 48 47 44 47 46 36 37 43 37 33 30 24 44 50 55 64 60 61 72 84 92 97 97 48 51 64 77 79 82 100 100 100 92 69 62 58 52 43 41 37 44 54
100 70 74 100 100 100 100 60 42 54 54 45 43 36 35 37 41 32 30 32 49 89 97 100 70 94 94 98 100 99 60 69 97 98 100 100 100 100 100 72 50 56 51 55 61 47 60 74 75